CZ-6A DEB, 54634

Orbit data source: Space-Track

CZ-6A DEB, 54634 is space debris in SSO originally from a launch on Fri, 11 Nov 2022 UTC launched from the Taiyaun Space Center, China (TSC). Debris objects in space refer to the collection of defunct objects orbiting the Earth. Examples of debris include non-operational satellites, rocket bodies, and fragments generated from explosions, collisions, or faulty payload assembly.

Loading next visibility...
Identifier
54634, 2022-151PL
Orbit
SSO
Country
Flag of CNCN / PRC
Related business
Manufacturer
SAST
Mission
Spacecraft
Bus & Motor
Unknown
Mass
Unknown
Launch date (UTC)
2022-11-11 (4 years ago)
Launch vehicle
Unknown
Launch site
Taiyaun Space Center, China (TSC)
Object type
Payload
Rocket body
Debris
Shape & HBR
Unknown shape, 0.1 m
Radar Cross Section
Medium (>0.1 m² and <1 m²)

Expand to show TLE details & history
Last TLE update: 10 hours ago

TLE from 10 hours ago
0 CZ-6A DEB
1 54634U 22151PL  26219.99514799  .00002886  00000-0  10467-2 0  9990
2 54634  98.7761 239.2098 0034361 125.0816 235.3598 14.33807440192602
Epoch: 2026-08-07T23:53Z
TLE epoch observation values (Epoch: 2026-08-07T23:53:00.786Z)
Latitude
-0.00003°
Longitude
-75.55632°
Altitude
796.002 km
Speed
7.448 km/s
True Right ascension
15h 56m 50s
True Declination
0° 00' 00"
Sunlit
Object was in daylight at epoch
Visualization orbit readout
Latitude
Unknown
Longitude
Unknown
Altitude
Unknown
Speed
Unknown
Apparent Right ascension
Unknown
Apparent Declination
Unknown
Sunlit
N/A
Visualization observer readout
Local Sidereal Time
23:44:31
Azimuth
Unknown
Elevation
Unknown
Doppler factor
Unknown
Orbital elements
Apogee altitude
800.759 km
Perigee altitude
751.593 km
Semi-major axis
7,154.313 km
Eccentricity
0.00344
Inclination
98.7761°
RAAN
239.2098°
Arg. of periapsis
125.0816°
True anomaly
235.03664°
Mean anomaly
235.3598°
Eccentric anomaly
235.19814°
Mean motion
3.58667 °/min
Orbital period
100.37 mins
BSTAR
0.0010467
Loading maneuver chart data...
Computing Atmospheric mass density...
Loading historical data...
Loading historical data...
Loading historical data...
Loading historical data...
Loading historical data...
Loading historical data...
Loading historical data...

Documentation

Showing up to 5 results
|